星链-11261 (STARLINK-11261)

导读 | 豆包AI

STARLINK-11261是美国太空探索技术公司Starlink星座的成员,于2024年8月28日发射入轨,属于低轨通信卫星。该卫星承担卫星互联网服务任务,为全球偏远地区、海洋船只等提供高速宽带接入,是Starlink“直接到手机”服务部署的组成部分,推进了星座全球覆盖的进程。

基本信息
目录编号:
60724
目录名称:
STARLINK-11261
国际标识:
2024-152E
轨道中心:
EARTH
卫星名称:
星链-11261 (STARLINK-11261)
卫星全名:
星链-11261 (STARLINK-11261)
卫星状态:
在轨 (已飞行635 天)
发射日期:
2024-08-28 UTC
国别 :
美国 (US)
星等 :
--
轨道信息
数据来源 国际轨道数据
星历时间: 2026-05-24T11:23:44+0800
1天前
查看轨道信息
半长轴: 6737.862km
偏心率: 0.0000807
轨道倾角: 53.157°
近地点辐角 86.620°
升交点赤经 104.452°
平近点角 273.491°
近地点: 359.181km
远地点: 360.269km
周期: 91.737分钟
每日圈数: 15.697107
详细信息
卫星平台:
Starlink v2.0 mini
运营商:
太空探索技术公司
运营商所在国:
美国
制造商(研发单位):
太空探索技术公司
制造商所在国:
美国
使用方式:
暂无
卫星简介
星链(Starlink)计划是由太空探索技术公司(SpaceX)提出的一个巨型低轨卫星互联网星座项目,计划在2019年至2024年间在太空搭建由约1.2万颗卫星组成的“星链”网络,其中1584颗将部署在地球上空550千米处的近地轨道,并从2020年开始工作。该卫星仍在工作。
2D轨道图
3D轨道图
轨道高度分析图
轨道倾角分析图
轨道综合分析图
查看轨道综合分析图